259  
ASUS42 KCAE 212010  
RWRCAE  
REGIONAL WEATHER ROUNDUP  
NATIONAL WEATHER SERVICE COLUMBIA SC  
300 PM EST SUN JAN 21 2018  
 
NOTE: "FAIR" INDICATES FEW OR NO CLOUDS BELOW 12,000 FEET WITH NO  
SIGNIFICANT WEATHER AND/OR S TO VISIBILITY
.  
 
NOT ALL STATIONS ARE QUALITY CONTROLLED BY THE NATIONAL  
WEATHER SERVICE. USE DATA WITH CAUTION...ESPECIALLY  
DEWPOINT OBSERVATIONS.  
 
SCZ001>056-GAZ040-063>065-077-212100-   
..UPSTATE SOUTH CAROLINA
 
 
 
CITY SKY/WX TMP DP RH WIND PRES REMARKS
 
ANDERSON FAIR 69 44 40 SW3 30.18F  
LIBERTY MOCLDY 70 45 41 S8 30.16F  
SPARTANBURG PTSUNNY 68 39 34 CALM 30.18F  
CLEMSON FAIR 68 45 43 VRB5 30.18F  
GREENVILLE CLOUDY 70 42 36 S5 30.18F  
GREENWOOD FAIR 68 43 40 S3 30.19F  
GREER PTSUNNY 68 41 37 VRB6 30.18F  
ROCK HILL FAIR 68 42 38 SW9 30.19F  
CHESTER FAIR 68 37 32 SE8 30.20S  
LAURENS FAIR 68 43 40 CALM 30.18F  
 
   
..CENTRAL SOUTH CAROLINA
 
 
 
CITY SKY/WX TMP DP RH WIND PRES REMARKS
 
COLUMBIA APT FAIR 72 38 29 SE6 30.18F  
COLUMBIA OWENS FAIR 70 37 29 SE3 30.20F  
MCENTIRE ANGB SUNNY 71 38 30 CALM 30.19F  
ORANGEBURG FAIR 68 37 32 SE3 30.19F  
SUMTER SHAW FAIR 71 39 32 CALM 30.17F  
NEWBERRY FAIR 68 43 40 SW5 30.21F  
AIKEN FAIR 68 41 37 CALM 30.22F  
BARNWELL N/A 70 45 40 CALM 30.20S  
MANNING FAIR N/A N/A N/A MISG 30.20F  
CAMDEN FAIR 68 39 34 CALM 30.20F  
LANCASTER FAIR 68 37 32 SW7 30.19F  
WINNSBORO FAIR 68 39 34 CALM 30.19F  
 
   
..EASTERN AND COASTAL SOUTH CAROLINA
 
 
 
CITY SKY/WX TMP DP RH WIND PRES REMARKS
 
MYRTLE BEACH FAIR 58 40 51 SE8 30.23F  
N MYRTLE BCH FAIR 59 35 40 S7 30.21F  
CONWAY FAIR 68 41 37 CALM 30.21S  
MARION FAIR 66 39 37 S6 30.20F  
HARTSVILLE FAIR 68 39 34 CALM 30.19S  
FLORENCE FAIR 68 40 35 CALM 30.20F  
DARLINGTON FAIR 68 42 38 CALM 30.20F  
CHARLESTON APT FAIR 68 42 38 SE10 30.20S  
MOUNT PLEASANT FAIR 63 43 48 SE6 30.21S  
WALTERBORO FAIR 68 39 34 N3 30.20F  
BEAUFORT FAIR 66 46 48 SE6 30.20  
 
   
..EASTERN GEORGIA
 
 
 
CITY SKY/WX TMP DP RH WIND PRES REMARKS
 
AUGUSTA BUSH F FAIR 71 43 36 CALM 30.18F  
AUGUSTA DANIEL FAIR 71 42 35 CALM 30.19F  
THOMSON FAIR 69 44 41 SE5 30.23F  
WASHINGTON FAIR 68 43 40 CALM 30.18F  
CLAXTON FAIR 71 42 35 CALM 30.19F  
SYLVANIA FAIR 69 46 42 CALM 30.21F  
STATESBORO FAIR 71 34 25 CALM 30.20F  
SAVANNAH FAIR 71 40 32 VRB5 30.20F  
 
   
..SOUTHERN NORTH CAROLINA
 
 
 
CITY SKY/WX TMP DP RH WIND PRES REMARKS
 
CHARLOTTE FAIR 68 41 37 SW10 30.19F  
MONROE FAIR 67 41 38 SW6 30.18F  
WADESBORO FAIR 69 39 32 S6 30.19F  
ROCKINGHAM FAIR 68 42 38 SW9 30.19F  
RUTHERFORDTON CLOUDY 67 41 38 S9 30.18F  
ASHEVILLE CLOUDY 62 42 47 VRB3 30.18F  
 

 
 
 
CLICK HERE TO GO TO PREVIOUS BULLETINS.

The Nexlab SC Page
The Nexlab GA Page Main Text Page